Вернуться в каталог

PSLV DEB

АктивенSSO
NORAD 28853·DEBRIS·🇮🇳 India

Запущен Oct 22, 2001 с Satish Dhawan Space Centre

Loading…

Ближайшие Пролёты (ближайшие 24 часа)

TLE

СвежийSource: Space-Track

Эпоха: Sep 11, 2026, 10:46 UTC

1 28853U 01049PF  26254.44902228  .00003023  00000-0  21659-3 0  9994
2 28853  97.9906 323.7516 0024772 323.6718  36.2825 15.04973148718562

Отслеживайте PSLV DEB в реальном времени с AllMySat

Download on the App Store